[[[{"header":{"parameterUnit":"kt","parameterCategory":2,"dx":1,"dy":1,"la1":30.253999710083008,"la2":30.299108505249023,"lo1":-89.0895004272461,"lo2":-89.04439544677734,"nx":28,"ny":28,"refTime":"2022-10-10T21:00:00:Z","depth":"0","parameterNumber":2,"parameterNumberName":"U-component_of_CURRENTS"},"data":[-0.2536,-0.2475,-0.2534,-0.252,-0.257,-0.2516,-0.2486,-0.2513,-0.2683,-0.304,-0.3462,-0.3808,-0.382,-0.4077,-0.3861,-0.3602,-0.3318,-0.3273,-0.3041,-0.3176,-0.3154,-0.3133,-0.3175,-0.334,-0.3339,-0.2915,-0.2912,-0.291,-0.2705,-0.2741,-0.2754,-0.2737,-0.2747,-0.2791,-0.276,-0.2708,-0.2726,-0.3023,-0.315,-0.3534,-0.3647,-0.3643,-0.3629,-0.3448,-0.3253,-0.3231,-0.3143,-0.3025,-0.3144,-0.3196,-0.3367,-0.3367,-0.3367,-0.3367,-0.3367,-0.3367,-0.2976,-0.2947,-0.2947,-0.2919,-0.2926,-0.2914,-0.2843,-0.2864,-0.2846,-0.2893,-0.2945,-0.3115,-0.3226,-0.3266,-0.318,-0.3122,-0.2937,-0.304,-0.3007,-0.2918,-0.2861,-0.3007,-0.3092,-0.3091,-0.3089,-0.3088,-0.3087,0,-0.3104,-0.3135,-0.3101,-0.3087,-0.3048,-0.3001,-0.2942,-0.2914,-0.2855,-0.2854,-0.2851,-0.2864,-0.2871,-0.2971,-0.2946,-0.2869,-0.2707,-0.2772,-0.2723,-0.2898,-0.2859,-0.2745,-0.2801,-0.2876,-0.2873,-0.2871,-0.2869,-0.2868,-0.3211,-0.3214,-0.3187,-0.3162,-0.313,-0.3067,-0.3019,-0.2958,-0.2911,-0.2847,-0.2813,-0.277,-0.2759,-0.2694,-0.2687,-0.2656,-0.2532,-0.2703,-0.2714,-0.2714,-0.2675,-0.2596,-0.2507,-0.2837,-0.2841,-0.2844,-0.2847,0,-0.324,-0.3253,-0.3211,-0.3161,-0.3143,-0.3094,-0.3001,-0.2953,-0.291,-0.2835,-0.2815,-0.2744,-0.2696,-0.2618,-0.2529,-0.2515,-0.2469,-0.2473,-0.2614,-0.2618,-0.2666,-0.2644,-0.2613,-0.2517,-0.2534,-0.2536,-0.2538,0,-0.3241,-0.3222,-0.3198,-0.3178,-0.3131,-0.3075,-0.3016,-0.296,-0.289,-0.2827,-0.2772,-0.2724,-0.2628,-0.2571,-0.2518,-0.2489,-0.2441,-0.2466,-0.245,-0.2549,-0.2565,-0.2562,-0.2545,-0.2363,-0.2363,-0.2363,-0.2363,0,-0.3206,-0.3184,-0.3182,-0.3154,-0.3071,-0.305,-0.2999,-0.2919,-0.2864,-0.2793,-0.2753,-0.2681,-0.2626,-0.2576,-0.25,-0.2491,-0.2426,-0.2391,-0.2438,-0.2443,-0.2559,-0.2575,-0.2563,-0.2363,-0.2363,-0.2364,-0.2364,0,-0.3159,-0.3148,-0.3157,-0.3063,-0.3051,-0.3029,-0.2942,-0.2901,-0.2815,-0.2768,-0.2713,-0.2649,-0.2591,-0.2563,-0.2486,-0.2496,-0.2461,-0.2418,-0.2416,-0.2515,-0.2487,-0.2605,-0.2605,-0.2583,-0.2379,-0.2379,-0.2379,0,-0.3087,-0.3106,-0.3076,-0.3051,-0.303,-0.2956,-0.2919,-0.2859,-0.2796,-0.2736,-0.2661,-0.2598,-0.2568,-0.2533,-0.2505,-0.2439,-0.2427,-0.2438,-0.2407,-0.2407,-0.2502,-0.2476,-0.2597,-0.26,-0.2381,-0.2381,-0.2381,0,-0.3027,-0.2994,-0.2998,-0.2972,-0.2924,-0.2895,-0.2867,-0.2814,-0.2789,-0.2716,-0.268,-0.2592,-0.2556,-0.2536,-0.2488,-0.2465,-0.2429,-0.2458,-0.2457,-0.2473,-0.2387,-0.2468,-0.2474,-0.24,-0.24,-0.24,-0.2383,0,-0.2943,-0.2937,-0.2943,-0.2931,-0.2901,-0.2887,-0.283,-0.2794,-0.2755,-0.2718,-0.2645,-0.2582,-0.2541,-0.2497,-0.2487,-0.2446,-0.2452,-0.2434,-0.248,-0.244,-0.2434,-0.2432,-0.2461,-0.2462,-0.2462,-0.2463,0,0,-0.2881,-0.2895,-0.2856,-0.2866,-0.2846,-0.2799,-0.2806,-0.277,-0.2729,-0.2708,-0.269,-0.2602,-0.2571,-0.2525,-0.2496,-0.2469,-0.2468,-0.2517,-0.2448,-0.2446,-0.2445,-0.2439,-0.2437,-0.2464,-0.2464,-0.2464,-0.2464,0,-0.286,-0.2834,-0.2856,-0.2828,-0.2813,-0.2789,-0.2788,-0.2758,-0.2735,-0.27,-0.2676,-0.2628,-0.2587,-0.2554,-0.2537,-0.248,-0.2499,-0.2456,-0.2482,-0.2453,-0.245,-0.2448,-0.2441,-0.2439,-0.2465,-0.2465,-0.2465,0,-0.2818,-0.2812,-0.2809,-0.2791,-0.2781,-0.2774,-0.2762,-0.2755,-0.2742,-0.2732,-0.2707,-0.2667,-0.264,-0.2593,-0.2576,-0.2599,-0.2544,-0.2551,-0.2547,-0.2588,-0.2562,-0.2558,-0.2554,-0.2605,-0.2605,-0.2606,0,0,-0.2808,-0.2804,-0.2781,-0.2787,-0.2779,-0.2765,-0.276,-0.2752,-0.2736,-0.2731,-0.2713,-0.2692,-0.2656,-0.2651,-0.2617,-0.2595,-0.2607,-0.2569,-0.2563,-0.2557,-0.2594,-0.2567,-0.2562,-0.2608,-0.2608,-0.2608,0,0,-0.2802,-0.2784,-0.2779,-0.2787,-0.2763,-0.2746,-0.2749,-0.2744,-0.2727,-0.2737,-0.2726,-0.2722,-0.268,-0.2682,-0.271,-0.2631,-0.2656,-0.265,-0.2641,-0.2633,-0.2626,-0.2678,-0.2723,0,0,0,0,0,-0.2774,-0.2784,-0.278,-0.278,-0.2771,-0.2746,-0.2743,-0.2739,-0.2754,-0.2743,-0.2731,-0.2743,-0.268,-0.2705,-0.2703,-0.2676,-0.2636,-0.2631,-0.2626,-0.2606,-0.2597,-0.259,0,0,0,0,0,0,-0.2774,-0.2773,-0.2779,-0.2765,-0.2763,-0.2747,-0.2756,-0.2754,-0.2754,-0.2754,-0.2744,-0.2742,-0.2733,-0.2707,-0.2705,-0.2679,-0.2723,-0.2634,-0.263,-0.2626,-0.2603,-0.2596,-0.259,0,0,0,0,0,-0.2774,-0.2773,-0.2763,-0.2765,-0.2763,-0.2757,-0.2756,-0.2754,-0.2754,-0.2742,-0.2741,-0.2752,-0.2733,-0.2731,-0.2706,-0.268,-0.2725,-0.2724,-0.2631,-0.2628,-0.2625,-0.2599,0,0,0,0,0,0,-0.2773,-0.2766,-0.2762,-0.2761,-0.2769,-0.2757,-0.2755,-0.2755,-0.2742,-0.2741,-0.275,-0.275,-0.2733,-0.2732,-0.273,-0.2679,-0.2726,-0.2725,-0.2725,-0.2629,-0.2626,-0.2624,0,0,0,0,0,0,-0.2767,-0.2766,-0.2761,-0.2767,-0.2766,-0.2757,-0.2756,-0.2747,-0.2742,-0.275,-0.2749,-0.275,-0.2739,-0.2732,-0.2731,-0.2717,-0.2727,-0.2726,-0.2726,-0.2725,-0.2627,-0.2625,0,0,0,0,0,0,-0.2766,-0.2765,-0.2767,-0.2766,-0.2766,-0.2752,-0.2749,-0.2741,-0.2744,-0.275,-0.2745,-0.2745,-0.2739,-0.2738,-0.2731,-0.2717,-0.2717,-0.2727,-0.2726,-0.2726,-0.2726,0,0,0,0,0,0,0,-0.2765,-0.2776,-0.2771,-0.2766,-0.2765,-0.2752,-0.2752,-0.2751,-0.2744,-0.2744,-0.2744,-0.2745,-0.2731,-0.273,-0.2729,-0.2718,0,0,-0.2727,-0.2727,0,0,0,0,0,0,0,0,-0.2776,-0.2776,-0.2771,-0.2771,-0.277,-0.2752,-0.2752,-0.2751,-0.2744,-0.2744,-0.2744,-0.2745,-0.2731,-0.273,-0.273,0,0,0,0,0,0,0,0,0,0,0,0,0,0,0,-0.2771,-0.2771,0,-0.2752,-0.2752,-0.2752,-0.2744,-0.2744,-0.2744,-0.2745,-0.2731,-0.273,-0.273,0,0,0,0,0,0,0,0,0,0,0,0,0,0,0,0,0,0,0,0,0,0,0,0,0,0,0,0,0,0,0,0,0,0,0,0,0,0,0,0,0,0,0,0,0,0,0,0,0,0,0,0,0,0,0,0,0,0,0,0,0,0,0,0,0,0,0,0,0]}],[{"header":{"parameterUnit":"kt","parameterCategory":2,"dx":1,"dy":1,"la1":30.253999710083008,"la2":30.299108505249023,"lo1":-89.0895004272461,"lo2":-89.04439544677734,"nx":28,"ny":28,"refTime":"2022-10-10T21:00:00:Z","depth":"0","parameterNumber":3,"parameterNumberName":"V-component_of_CURRENTS"},"data":[-0.0957,-0.0913,-0.0923,-0.0972,-0.1016,-0.1113,-0.1164,-0.1335,-0.1437,-0.1548,-0.1473,-0.1399,-0.0485,0.0989,0.1694,0.1671,0.1771,0.1787,0.1754,0.1433,0.1372,0.1313,0.1415,0.1906,0.1907,0.2304,0.2308,0.2312,-0.1012,-0.0995,-0.0977,-0.0982,-0.1025,-0.1044,-0.1092,-0.1183,-0.1291,-0.1366,-0.1392,-0.0975,-0.0455,0.0005,0.0712,0.0919,0.0918,0.0979,0.1122,0.1089,0.0549,0.0631,0.0964,0.0964,0.0964,0.0963,0.0963,0.0963,-0.11,-0.1066,-0.1038,-0.1024,-0.1032,-0.1063,-0.109,-0.1128,-0.1168,-0.1271,-0.1148,-0.1169,-0.0666,-0.0378,-0.0231,0.0196,0.005,0.0269,0.0329,0.0373,0.0482,-0.0109,0.0034,0.0033,0.0031,0.003,0.0028,0,-0.1158,-0.1145,-0.111,-0.1093,-0.1079,-0.1073,-0.1071,-0.1081,-0.1089,-0.1118,-0.1111,-0.1079,-0.0889,-0.0681,-0.0509,-0.0447,-0.0265,-0.04,-0.0187,0.015,0.0286,0.0337,-0.035,-0.027,-0.0274,-0.0277,-0.0279,-0.028,-0.1198,-0.1186,-0.1144,-0.1127,-0.1107,-0.1089,-0.1085,-0.109,-0.1093,-0.1094,-0.1094,-0.1052,-0.1008,-0.0898,-0.0758,-0.0658,-0.0546,-0.049,-0.0464,-0.0218,-0.0113,-0.0037,-0.0012,-0.032,-0.0315,-0.031,-0.0307,0,-0.1198,-0.1189,-0.1158,-0.1127,-0.1124,-0.1105,-0.1091,-0.1093,-0.1101,-0.11,-0.1101,-0.1093,-0.1041,-0.1004,-0.0962,-0.0905,-0.0692,-0.0793,-0.0652,-0.0606,-0.0266,-0.0188,0.0044,0.0093,-0.0668,-0.0665,-0.0663,0,-0.1183,-0.1172,-0.1138,-0.1128,-0.1115,-0.1099,-0.1096,-0.1091,-0.1093,-0.109,-0.1088,-0.1077,-0.1061,-0.1033,-0.0994,-0.09,-0.0965,-0.0823,-0.0795,-0.0684,-0.0663,-0.0435,-0.0346,-0.094,-0.094,-0.094,-0.094,0,-0.1155,-0.1134,-0.1127,-0.1116,-0.1084,-0.1084,-0.1074,-0.1069,-0.1064,-0.1069,-0.1064,-0.1064,-0.105,-0.1033,-0.0972,-0.097,-0.0945,-0.0938,-0.0811,-0.0803,-0.0661,-0.0637,-0.0436,-0.094,-0.094,-0.094,-0.094,0,-0.1123,-0.1111,-0.1105,-0.1076,-0.1074,-0.1067,-0.1061,-0.1052,-0.1049,-0.1036,-0.1032,-0.1005,-0.101,-0.0973,-0.0961,-0.095,-0.0919,-0.0894,-0.0893,-0.0758,-0.0706,-0.0577,-0.0579,-0.035,-0.0855,-0.0854,-0.0854,0,-0.1089,-0.1089,-0.1076,-0.1064,-0.1055,-0.1033,-0.103,-0.1017,-0.1,-0.0994,-0.0974,-0.095,-0.0919,-0.09,-0.0908,-0.087,-0.0879,-0.0868,-0.0816,-0.0815,-0.0709,-0.0744,-0.0607,-0.0583,-0.0848,-0.0849,-0.0849,0,-0.1067,-0.1046,-0.1046,-0.1041,-0.1022,-0.1007,-0.1002,-0.0993,-0.0998,-0.0956,-0.0961,-0.091,-0.0894,-0.0865,-0.083,-0.0835,-0.0866,-0.0792,-0.079,-0.0791,-0.0866,-0.075,-0.0743,-0.0846,-0.0847,-0.0848,-0.0845,0,-0.0997,-0.1011,-0.1012,-0.1033,-0.1016,-0.1002,-0.0984,-0.0967,-0.0945,-0.0928,-0.0901,-0.0838,-0.0797,-0.0789,-0.0745,-0.0768,-0.0739,-0.0718,-0.0685,-0.0732,-0.0722,-0.0726,-0.0657,-0.0655,-0.0654,-0.0653,0,0,-0.0973,-0.1008,-0.1015,-0.1017,-0.1007,-0.0983,-0.098,-0.0955,-0.0898,-0.089,-0.0863,-0.0779,-0.0726,-0.0707,-0.0718,-0.068,-0.0664,-0.0658,-0.0706,-0.0712,-0.0718,-0.0711,-0.0716,-0.0651,-0.065,-0.065,-0.0649,0,-0.0962,-0.0994,-0.1023,-0.1009,-0.0995,-0.0974,-0.0976,-0.0937,-0.092,-0.0868,-0.0832,-0.0803,-0.0696,-0.0677,-0.0648,-0.0661,-0.0616,-0.0644,-0.0689,-0.0695,-0.0703,-0.071,-0.0705,-0.0711,-0.0646,-0.0647,-0.0647,0,-0.0951,-0.0973,-0.0998,-0.1011,-0.0991,-0.0979,-0.0959,-0.0932,-0.0924,-0.0842,-0.0797,-0.0748,-0.068,-0.0635,-0.061,-0.0592,-0.0574,-0.0558,-0.0564,-0.0565,-0.0569,-0.0578,-0.0586,-0.0481,-0.0481,-0.0481,0,0,-0.0947,-0.0987,-0.0988,-0.1012,-0.1005,-0.0972,-0.0952,-0.0933,-0.0883,-0.0857,-0.0796,-0.0736,-0.0687,-0.0649,-0.059,-0.0536,-0.052,-0.0541,-0.0548,-0.0555,-0.056,-0.0565,-0.0574,-0.048,-0.048,-0.048,0,0,-0.0931,-0.0971,-0.0987,-0.1018,-0.0999,-0.0952,-0.093,-0.0916,-0.0853,-0.0845,-0.0772,-0.0749,-0.0699,-0.0647,-0.0642,-0.0592,-0.0558,-0.0556,-0.0623,-0.0632,-0.0639,-0.0662,-0.0593,0,0,0,0,0,-0.0954,-0.0975,-0.0991,-0.0997,-0.0992,-0.0959,-0.0947,-0.0911,-0.0908,-0.089,-0.0829,-0.0789,-0.0641,-0.0634,-0.0609,-0.0622,-0.0466,-0.0468,-0.0471,-0.0545,-0.0555,-0.0563,0,0,0,0,0,0,-0.0956,-0.0968,-0.0988,-0.0958,-0.0955,-0.0958,-0.0942,-0.093,-0.0908,-0.0905,-0.0803,-0.0785,-0.0727,-0.0641,-0.062,-0.0635,-0.06,-0.0467,-0.0469,-0.0471,-0.0548,-0.0556,-0.0563,0,0,0,0,0,-0.0958,-0.0967,-0.099,-0.0953,-0.0951,-0.0908,-0.0942,-0.0932,-0.0906,-0.0821,-0.0804,-0.0885,-0.0728,-0.0706,-0.0628,-0.0647,-0.0614,-0.0606,-0.0468,-0.047,-0.0471,-0.0552,0,0,0,0,0,0,-0.0959,-0.0925,-0.0985,-0.098,-0.0963,-0.0904,-0.0902,-0.0934,-0.082,-0.0806,-0.0898,-0.0896,-0.0728,-0.0711,-0.0694,-0.0656,-0.0625,-0.0618,-0.0613,-0.0469,-0.0471,-0.0472,0,0,0,0,0,0,-0.092,-0.0921,-0.0982,-0.0998,-0.0993,-0.0902,-0.09,-0.082,-0.0817,-0.0901,-0.0898,-0.0899,-0.0746,-0.0714,-0.0701,-0.0576,-0.0634,-0.0627,-0.0622,-0.0618,-0.047,-0.0471,0,0,0,0,0,0,-0.0918,-0.0919,-0.0998,-0.0995,-0.099,-0.0917,-0.0824,-0.0812,-0.0865,-0.0904,-0.0867,-0.0868,-0.075,-0.0736,-0.0706,-0.0587,-0.0579,-0.0634,-0.0629,-0.0625,-0.0623,0,0,0,0,0,0,0,-0.0916,-0.0943,-0.103,-0.0992,-0.0988,-0.0929,-0.0927,-0.0924,-0.0866,-0.0866,-0.0867,-0.0867,-0.0677,-0.0668,-0.066,-0.0596,0,0,-0.0635,-0.0631,0,0,0,0,0,0,0,0,-0.0939,-0.0942,-0.1029,-0.1029,-0.1028,-0.0929,-0.0927,-0.0925,-0.0866,-0.0866,-0.0867,-0.0867,-0.0674,-0.0668,-0.0661,0,0,0,0,0,0,0,0,0,0,0,0,0,0,0,-0.1029,-0.1029,0,-0.0929,-0.0927,-0.0925,-0.0866,-0.0866,-0.0867,-0.0867,-0.0673,-0.0667,-0.0662,0,0,0,0,0,0,0,0,0,0,0,0,0,0,0,0,0,0,0,0,0,0,0,0,0,0,0,0,0,0,0,0,0,0,0,0,0,0,0,0,0,0,0,0,0,0,0,0,0,0,0,0,0,0,0,0,0,0,0,0,0,0,0,0,0,0,0,0,0]}]],[[{"header":{"parameterUnit":"kt","parameterCategory":2,"dx":1,"dy":1,"la1":30.253999710083008,"la2":30.299108505249023,"lo1":-89.0895004272461,"lo2":-89.04439544677734,"nx":28,"ny":28,"refTime":"2022-10-10T21:00:00:Z","depth":"2","parameterNumber":2,"parameterNumberName":"U-component_of_CURRENTS"},"data":[-0.1679,-0.1637,-0.1687,-0.1645,-0.1645,-0.1583,-0.1593,-0.1824,-0.1945,-0.2108,-0.2161,-0.2513,-0.2282,-0.1949,-0.1827,-0.168,-0.1682,-0.164,-0.2013,-0.1828,-0.1836,-0.1812,-0.1827,0,0,0,0,0,-0.1811,-0.1778,-0.1795,-0.1839,-0.184,-0.1877,-0.1936,-0.1999,-0.2231,-0.2414,-0.2691,-0.2434,-0.2486,-0.222,-0.2051,-0.2041,-0.1982,-0.1849,-0.168,-0.1691,-0.1699,-0.1699,-0.16,-0.1598,-0.1597,-0.1596,0,0,-0.2001,-0.198,-0.197,-0.2001,-0.2024,-0.2045,-0.204,-0.2184,-0.2326,-0.247,-0.2673,-0.2789,-0.2566,-0.2474,-0.2358,-0.2187,-0.2298,-0.2047,-0.2043,-0.2041,-0.2065,-0.2085,-0.206,-0.2062,-0.2064,-0.2065,-0.2066,0,-0.2153,-0.2146,-0.2138,-0.2169,-0.2168,-0.2194,-0.2199,-0.2234,-0.2293,-0.2413,-0.2559,-0.2668,-0.2666,-0.2586,-0.2477,-0.2405,-0.2106,-0.2087,-0.2219,-0.1901,-0.1911,-0.191,-0.1918,-0.1851,-0.1852,-0.1852,-0.1853,-0.1853,-0.2341,-0.2276,-0.2321,-0.2318,-0.2284,-0.229,-0.2288,-0.2336,-0.2341,-0.2402,-0.2397,-0.2396,-0.2485,-0.2454,-0.2389,-0.2332,-0.2223,-0.2096,-0.2078,-0.222,-0.2221,-0.2221,-0.2222,-0.1862,-0.1861,-0.186,-0.1859,0,-0.2417,-0.2405,-0.2383,-0.2388,-0.2397,-0.2386,-0.2392,-0.2392,-0.2394,-0.2383,-0.2358,-0.2376,-0.2353,-0.2282,-0.2205,-0.2194,-0.216,-0.2156,-0.2014,-0.2004,-0.2204,-0.2208,-0.2201,-0.2204,-0.2207,-0.2209,-0.2211,0,-0.2494,-0.2487,-0.2466,-0.2434,-0.2443,-0.2439,-0.2425,-0.2433,-0.2421,-0.2418,-0.2381,-0.2383,-0.2283,-0.2247,-0.2189,-0.2171,-0.2119,-0.2155,-0.2157,-0.2018,-0.2016,-0.2096,-0.2102,-0.2047,-0.2047,-0.2048,-0.2048,0,-0.2528,-0.2525,-0.2476,-0.2478,-0.2469,-0.2451,-0.2457,-0.2455,-0.2455,-0.2417,-0.2404,-0.2348,-0.2303,-0.2239,-0.2187,-0.2174,-0.2121,-0.2109,-0.2153,-0.2159,-0.2033,-0.2032,-0.2048,-0.2048,-0.2049,-0.2049,-0.2049,0,-0.2532,-0.252,-0.2455,-0.2489,-0.2488,-0.2459,-0.2495,-0.2477,-0.246,-0.2437,-0.2387,-0.2349,-0.2306,-0.2272,-0.2206,-0.2212,-0.2164,-0.2142,-0.2139,-0.2247,-0.2259,-0.2099,-0.2024,-0.2117,-0.2118,-0.2118,-0.2119,0,-0.2572,-0.2513,-0.2501,-0.2495,-0.2483,-0.2503,-0.2486,-0.2481,-0.2461,-0.2437,-0.2398,-0.2344,-0.2312,-0.2277,-0.2252,-0.2224,-0.2193,-0.2222,-0.217,-0.2169,-0.2278,-0.2238,-0.2084,-0.2037,-0.2127,-0.2126,-0.2126,0,-0.2607,-0.2555,-0.2568,-0.2562,-0.255,-0.2548,-0.2524,-0.2509,-0.2517,-0.244,-0.2416,-0.234,-0.2321,-0.2302,-0.2281,-0.2264,-0.2209,-0.2237,-0.2237,-0.2236,-0.2138,-0.2237,-0.224,-0.2183,-0.2182,-0.2182,-0.2132,0,-0.2596,-0.2602,-0.2594,-0.2566,-0.2559,-0.2552,-0.2535,-0.2525,-0.2508,-0.2485,-0.2427,-0.2385,-0.2343,-0.2318,-0.2305,-0.2266,-0.2251,-0.2255,-0.23,-0.2252,-0.2234,-0.2229,-0.2303,-0.2304,-0.2305,-0.2305,0,0,-0.2653,-0.2638,-0.2643,-0.2612,-0.2616,-0.2623,-0.2595,-0.2579,-0.2539,-0.2533,-0.2504,-0.242,-0.2406,-0.2375,-0.2339,-0.2325,-0.23,-0.2337,-0.2268,-0.2264,-0.226,-0.2242,-0.2236,-0.2306,-0.2307,-0.2307,-0.2307,0,-0.2646,-0.2682,-0.2656,-0.2645,-0.2627,-0.2622,-0.2619,-0.259,-0.2579,-0.2526,-0.252,-0.2489,-0.2419,-0.2411,-0.2395,-0.2335,-0.2335,-0.23,-0.2297,-0.2274,-0.2269,-0.2264,-0.2245,-0.224,-0.2308,-0.2308,-0.2308,0,-0.2661,-0.2661,-0.2665,-0.2653,-0.2644,-0.2618,-0.2628,-0.2617,-0.2596,-0.2595,-0.2558,-0.2526,-0.2499,-0.2448,-0.2429,-0.2451,-0.238,-0.2399,-0.2394,-0.241,-0.2388,-0.2382,-0.2376,-0.2456,-0.2457,-0.2458,0,0,-0.265,-0.2655,-0.2639,-0.265,-0.2642,-0.2631,-0.2626,-0.2619,-0.2602,-0.2595,-0.2575,-0.2554,-0.2517,-0.2509,-0.2473,-0.2444,-0.2448,-0.2418,-0.2411,-0.2405,-0.2417,-0.2394,-0.2387,-0.246,-0.246,-0.246,0,0,-0.2642,-0.2638,-0.2643,-0.2657,-0.2634,-0.2617,-0.2617,-0.2615,-0.2595,-0.2604,-0.2594,-0.2589,-0.2542,-0.2543,-0.2571,-0.2487,-0.2514,-0.2508,-0.2496,-0.2487,-0.248,-0.2502,-0.2586,0,0,0,0,0,-0.2626,-0.2638,-0.2642,-0.2645,-0.2645,-0.2617,-0.2614,-0.2611,-0.263,-0.2614,-0.2602,-0.2614,-0.2542,-0.2568,-0.2565,-0.2536,-0.2488,-0.2483,-0.2478,-0.2453,-0.2444,-0.2436,0,0,0,0,0,0,-0.2627,-0.263,-0.2641,-0.263,-0.263,-0.2618,-0.2632,-0.263,-0.263,-0.263,-0.2615,-0.2613,-0.2603,-0.2571,-0.2568,-0.2539,-0.2587,-0.2486,-0.2482,-0.2478,-0.245,-0.2443,-0.2436,0,0,0,0,0,-0.2627,-0.263,-0.2637,-0.2629,-0.2629,-0.2625,-0.2632,-0.2631,-0.2628,-0.2616,-0.2614,-0.2628,-0.2603,-0.26,-0.2569,-0.254,-0.2589,-0.2588,-0.2483,-0.248,-0.2477,-0.2446,0,0,0,0,0,0,-0.2628,-0.2619,-0.2637,-0.2636,-0.2634,-0.2625,-0.2625,-0.2631,-0.2613,-0.2612,-0.2628,-0.2628,-0.2603,-0.2601,-0.2598,-0.254,-0.2591,-0.259,-0.2589,-0.2481,-0.2478,-0.2476,0,0,0,0,0,0,-0.2618,-0.2618,-0.2636,-0.2643,-0.2643,-0.2624,-0.2624,-0.2611,-0.2613,-0.2625,-0.2626,-0.2628,-0.261,-0.2601,-0.2599,-0.2577,-0.2593,-0.2591,-0.259,-0.259,-0.2478,-0.2476,0,0,0,0,0,0,-0.2617,-0.2618,-0.2643,-0.2643,-0.2642,-0.263,-0.2611,-0.2612,-0.2621,-0.2626,-0.2622,-0.2622,-0.261,-0.2608,-0.26,-0.2578,-0.2577,-0.2592,-0.2592,-0.2591,-0.2591,0,0,0,0,0,0,0,-0.2617,-0.262,-0.2646,-0.2642,-0.2642,-0.2629,-0.2628,-0.2628,-0.2621,-0.2621,-0.2622,-0.2622,-0.2599,-0.2598,-0.2597,-0.2579,0,0,-0.2593,-0.2592,0,0,0,0,0,0,0,0,-0.262,-0.262,-0.2646,-0.2646,-0.2646,-0.2629,-0.2628,-0.2628,-0.2621,-0.2621,-0.2622,-0.2622,-0.2599,-0.2598,-0.2597,0,0,0,0,0,0,0,0,0,0,0,0,0,0,0,-0.2646,-0.2646,0,-0.2629,-0.2628,-0.2628,-0.2621,-0.2621,-0.2621,-0.2622,-0.2599,-0.2598,-0.2597,0,0,0,0,0,0,0,0,0,0,0,0,0,0,0,0,0,0,0,0,0,0,0,0,0,0,0,0,0,0,0,0,0,0,0,0,0,0,0,0,0,0,0,0,0,0,0,0,0,0,0,0,0,0,0,0,0,0,0,0,0,0,0,0,0,0,0,0,0]}],[{"header":{"parameterUnit":"kt","parameterCategory":2,"dx":1,"dy":1,"la1":30.253999710083008,"la2":30.299108505249023,"lo1":-89.0895004272461,"lo2":-89.04439544677734,"nx":28,"ny":28,"refTime":"2022-10-10T21:00:00:Z","depth":"2","parameterNumber":3,"parameterNumberName":"V-component_of_CURRENTS"},"data":[-0.0799,-0.0792,-0.0788,-0.0763,-0.074,-0.0693,-0.0668,-0.0775,-0.0824,-0.0891,-0.0916,-0.0838,-0.0368,-0.0202,0.0199,0.0446,0.0479,0.0452,0.0613,0.0371,0.037,0.0642,0.0507,0,0,0,0,0,-0.0793,-0.077,-0.078,-0.0762,-0.0739,-0.0699,-0.0649,-0.0677,-0.0673,-0.0673,-0.057,-0.0396,-0.0149,0.0138,0.0551,0.0865,0.082,0.0839,0.0674,0.0676,0.0678,0.0592,0.0658,0.0659,0.0659,0.066,0,0,-0.0764,-0.0774,-0.0751,-0.0747,-0.072,-0.068,-0.0667,-0.0635,-0.0572,-0.0504,-0.0268,-0.0173,0.0099,0.0382,0.0669,0.0908,0.0932,0.0874,0.0868,0.0864,0.0794,0.0735,0.0909,0.091,0.0912,0.0913,0.0914,0,-0.0731,-0.0714,-0.0714,-0.0711,-0.0692,-0.0668,-0.0617,-0.0581,-0.0453,-0.037,-0.0186,-0.0043,0.032,0.0497,0.0766,0.0853,0.0821,0.0868,0.0964,0.0585,0.0517,0.0495,0.0477,0.0664,0.0664,0.0664,0.0665,0.0665,-0.069,-0.0682,-0.0674,-0.0673,-0.0659,-0.0644,-0.0613,-0.0532,-0.0467,-0.0261,-0.0195,0.0022,0.0169,0.0504,0.0686,0.0878,0.0821,0.0865,0.0778,0.0789,0.0774,0.0746,0.072,0.067,0.0669,0.0668,0.0668,0,-0.0672,-0.0635,-0.0643,-0.0617,-0.061,-0.0614,-0.0554,-0.0503,-0.0409,-0.0291,-0.0249,-0.0059,0.0127,0.0257,0.0473,0.0562,0.0726,0.0783,0.0586,0.0577,0.0715,0.0693,0.0976,0.098,0.0983,0.0986,0.0988,0,-0.0619,-0.0634,-0.0589,-0.0597,-0.0596,-0.057,-0.0528,-0.0492,-0.0385,-0.0304,-0.0212,-0.0099,0.004,0.0186,0.0265,0.0465,0.0477,0.0558,0.0572,0.0413,0.04,0.0414,0.0395,0.0555,0.0553,0.0552,0.0551,0,-0.0602,-0.0586,-0.0573,-0.0583,-0.0563,-0.0548,-0.0538,-0.0465,-0.0424,-0.0302,-0.0242,-0.0103,-0.0015,0.0099,0.0206,0.0155,0.0424,0.0371,0.0487,0.0489,0.043,0.042,0.0549,0.0548,0.0548,0.0547,0.0547,0,-0.0567,-0.0564,-0.0529,-0.0559,-0.0558,-0.0535,-0.0529,-0.0489,-0.0389,-0.0353,-0.0258,-0.0212,-0.0076,-0.0107,0.0094,0.0004,0.0078,0.0139,0.0147,0.0223,0.0162,0.0215,0.0289,0.0199,0.0196,0.0193,0.019,0,-0.0593,-0.0553,-0.0561,-0.0561,-0.0568,-0.0587,-0.0549,-0.0518,-0.0486,-0.0415,-0.0344,-0.027,-0.0286,-0.0256,-0.017,-0.0095,0.0,-0.0119,0.007,0.0077,0.0133,0.0219,0.0068,0.0241,0.0151,0.0155,0.0158,0,-0.0637,-0.063,-0.0646,-0.0651,-0.0657,-0.0662,-0.0617,-0.0587,-0.0547,-0.0504,-0.0427,-0.0348,-0.033,-0.0283,-0.0267,-0.0181,-0.0066,-0.0201,-0.0196,-0.0095,0.0121,0.0158,0.0188,-0.0084,-0.0079,-0.0076,0.0127,0,-0.0632,-0.0672,-0.0672,-0.0667,-0.067,-0.0676,-0.066,-0.065,-0.0646,-0.0606,-0.0537,-0.0471,-0.039,-0.0395,-0.0369,-0.0271,-0.028,-0.0296,-0.0243,-0.0228,-0.0151,-0.0127,-0.0408,-0.0407,-0.0407,-0.0407,0,0,-0.0688,-0.0719,-0.0767,-0.0741,-0.0751,-0.0767,-0.0739,-0.0714,-0.0668,-0.064,-0.0648,-0.0527,-0.0475,-0.0372,-0.038,-0.0381,-0.034,-0.0344,-0.0271,-0.0256,-0.0242,-0.0165,-0.0143,-0.0406,-0.0406,-0.0406,-0.0406,0,-0.0694,-0.078,-0.0777,-0.0782,-0.0772,-0.0763,-0.0768,-0.074,-0.0721,-0.0667,-0.0631,-0.0577,-0.0504,-0.0433,-0.0391,-0.0386,-0.032,-0.0418,-0.0364,-0.0273,-0.0259,-0.0246,-0.0168,-0.0148,-0.0405,-0.0406,-0.0406,0,-0.0714,-0.0741,-0.0772,-0.0802,-0.0785,-0.0758,-0.0762,-0.0749,-0.0716,-0.0662,-0.0598,-0.0569,-0.05,-0.0442,-0.0416,-0.0399,-0.0284,-0.0352,-0.0354,-0.0299,-0.0201,-0.0187,-0.0175,-0.032,-0.032,-0.032,0,0,-0.0702,-0.0754,-0.0761,-0.0799,-0.0797,-0.077,-0.0761,-0.0742,-0.07,-0.0679,-0.0619,-0.056,-0.0505,-0.0461,-0.0412,-0.0352,-0.0282,-0.0341,-0.0345,-0.0348,-0.0296,-0.0199,-0.0187,-0.0318,-0.0318,-0.0318,0,0,-0.068,-0.0726,-0.0737,-0.0788,-0.0778,-0.074,-0.0733,-0.0721,-0.0672,-0.0659,-0.0584,-0.0561,-0.051,-0.0469,-0.0459,-0.0391,-0.0379,-0.0378,-0.0393,-0.0397,-0.0401,-0.0348,-0.0396,0,0,0,0,0,-0.0688,-0.0728,-0.0739,-0.0748,-0.0762,-0.0747,-0.074,-0.0709,-0.0701,-0.0698,-0.0636,-0.0589,-0.0456,-0.0445,-0.0423,-0.0405,-0.03,-0.0303,-0.0306,-0.0314,-0.0319,-0.0324,0,0,0,0,0,0,-0.0691,-0.0705,-0.0736,-0.0713,-0.0715,-0.0746,-0.0717,-0.0707,-0.07,-0.0696,-0.0603,-0.0586,-0.0523,-0.0451,-0.0432,-0.0417,-0.0403,-0.0301,-0.0304,-0.0306,-0.0316,-0.032,-0.0324,0,0,0,0,0,-0.0694,-0.0705,-0.0754,-0.0709,-0.0711,-0.0678,-0.0716,-0.0708,-0.0697,-0.061,-0.0593,-0.0679,-0.0524,-0.0503,-0.0439,-0.0427,-0.0415,-0.0408,-0.0303,-0.0305,-0.0307,-0.0318,0,0,0,0,0,0,-0.0696,-0.0671,-0.0752,-0.0748,-0.0711,-0.0674,-0.0674,-0.0709,-0.0608,-0.0595,-0.068,-0.0677,-0.0525,-0.0509,-0.0493,-0.0435,-0.0425,-0.0418,-0.0414,-0.0305,-0.0306,-0.0308,0,0,0,0,0,0,-0.0664,-0.0669,-0.0749,-0.0754,-0.075,-0.067,-0.0671,-0.0602,-0.0605,-0.0681,-0.0678,-0.068,-0.0533,-0.0512,-0.05,-0.0393,-0.0433,-0.0427,-0.0422,-0.0419,-0.0306,-0.0307,0,0,0,0,0,0,-0.0664,-0.0667,-0.0755,-0.0752,-0.0748,-0.0698,-0.0603,-0.0607,-0.0655,-0.0683,-0.0655,-0.0654,-0.0537,-0.0524,-0.0505,-0.0404,-0.0396,-0.0433,-0.0428,-0.0425,-0.0423,0,0,0,0,0,0,0,-0.0664,-0.067,-0.0782,-0.0749,-0.0746,-0.0714,-0.0712,-0.0711,-0.0655,-0.0655,-0.0655,-0.0654,-0.0471,-0.0463,-0.0456,-0.0413,0,0,-0.0434,-0.043,0,0,0,0,0,0,0,0,-0.0665,-0.0668,-0.0782,-0.0782,-0.0781,-0.0714,-0.0712,-0.0711,-0.0655,-0.0655,-0.0655,-0.0654,-0.0469,-0.0463,-0.0457,0,0,0,0,0,0,0,0,0,0,0,0,0,0,0,-0.0782,-0.0782,0,-0.0714,-0.0713,-0.0711,-0.0655,-0.0655,-0.0655,-0.0655,-0.0467,-0.0462,-0.0457,0,0,0,0,0,0,0,0,0,0,0,0,0,0,0,0,0,0,0,0,0,0,0,0,0,0,0,0,0,0,0,0,0,0,0,0,0,0,0,0,0,0,0,0,0,0,0,0,0,0,0,0,0,0,0,0,0,0,0,0,0,0,0,0,0,0,0,0,0]}]],[[{"header":{"parameterUnit":"kt","parameterCategory":2,"dx":1,"dy":1,"la1":30.253999710083008,"la2":30.299108505249023,"lo1":-89.0895004272461,"lo2":-89.04439544677734,"nx":28,"ny":28,"refTime":"2022-10-10T21:00:00:Z","depth":"4","parameterNumber":2,"parameterNumberName":"U-component_of_CURRENTS"},"data":[-0.1367,-0.1404,-0.1415,-0.1339,-0.1323,-0.1357,-0.1423,-0.1522,-0.1489,-0.163,-0.1639,-0.1749,-0.1782,-0.1863,-0.1808,-0.1829,-0.186,-0.2033,-0.2028,-0.2173,-0.2193,-0.2211,-0.2135,0,0,0,0,0,-0.1421,-0.1423,-0.1468,-0.1513,-0.1567,-0.1605,-0.1721,-0.1804,-0.193,-0.1824,-0.1903,-0.1888,-0.1876,-0.1928,-0.1865,-0.2044,-0.2123,-0.1963,-0.2077,-0.2185,-0.2207,-0.2126,0,0,0,0,0,0,-0.1506,-0.1526,-0.1619,-0.1681,-0.1756,-0.1756,-0.1841,-0.1855,-0.1901,-0.202,-0.199,-0.2059,-0.2159,-0.212,-0.2136,-0.2123,-0.2099,-0.2042,-0.2071,-0.2093,-0.2003,-0.1921,-0.1734,0,0,0,0,0,-0.1579,-0.1653,-0.1728,-0.1818,-0.1892,-0.1959,-0.204,-0.2045,-0.2161,-0.228,-0.2217,-0.2212,-0.2212,-0.223,-0.225,-0.2257,-0.2431,-0.2369,-0.2381,-0.236,-0.2325,-0.2301,-0.2309,-0.2292,-0.2295,-0.2296,-0.2297,0,-0.1665,-0.1706,-0.1882,-0.1929,-0.2003,-0.2109,-0.2155,-0.2292,-0.2311,-0.2409,-0.2385,-0.2445,-0.2471,-0.2371,-0.2463,-0.2466,-0.245,-0.2427,-0.2406,-0.2361,-0.2331,-0.2333,-0.2335,-0.2315,-0.2314,-0.2312,-0.2311,0,-0.1702,-0.1809,-0.1904,-0.2061,-0.2111,-0.2169,-0.2301,-0.2337,-0.2434,-0.2459,-0.2481,-0.2555,-0.2563,-0.2626,-0.2664,-0.26,-0.2577,-0.2534,-0.2712,-0.2687,-0.237,-0.2364,-0.2345,-0.2338,-0.2333,-0.2328,-0.2324,0,-0.1786,-0.1855,-0.2004,-0.2045,-0.2136,-0.2231,-0.2315,-0.2381,-0.2462,-0.2484,-0.2567,-0.2571,-0.2654,-0.2677,-0.269,-0.2618,-0.2724,-0.2545,-0.2511,-0.2682,-0.2676,-0.2651,-0.264,-0.2744,-0.2743,-0.2743,-0.2743,0,-0.1803,-0.1933,-0.2014,-0.2054,-0.2182,-0.2241,-0.2307,-0.2393,-0.2437,-0.2518,-0.2541,-0.2612,-0.2633,-0.2667,-0.2674,-0.2669,-0.2712,-0.2693,-0.2532,-0.2519,-0.2646,-0.2636,-0.2743,-0.2743,-0.2743,-0.2743,-0.2743,0,-0.1852,-0.1915,-0.2012,-0.2123,-0.2147,-0.2212,-0.2305,-0.2371,-0.2446,-0.248,-0.2535,-0.2552,-0.2612,-0.2595,-0.265,-0.2631,-0.2635,-0.2635,-0.2635,-0.243,-0.2361,-0.2495,-0.2599,-0.2598,-0.2597,-0.2596,-0.2596,0,-0.1846,-0.1932,-0.1971,-0.2069,-0.2111,-0.2165,-0.2233,-0.2298,-0.2347,-0.2403,-0.2442,-0.2496,-0.2499,-0.2519,-0.2555,-0.2555,-0.2589,-0.2561,-0.2538,-0.2538,-0.2354,-0.2406,-0.2564,-0.2582,-0.2584,-0.2585,-0.2586,0,-0.1811,-0.1903,-0.1914,-0.1956,-0.2026,-0.2061,-0.2144,-0.2207,-0.2253,-0.2319,-0.2372,-0.2455,-0.2453,-0.2471,-0.2473,-0.2502,-0.2565,-0.2473,-0.2472,-0.247,-0.2603,-0.2413,-0.2402,-0.2555,-0.2556,-0.2558,-0.2577,0,-0.1816,-0.1862,-0.189,-0.1931,-0.1974,-0.2025,-0.2063,-0.2116,-0.2153,-0.2179,-0.2263,-0.2288,-0.2331,-0.2359,-0.2353,-0.2429,-0.2403,-0.238,-0.2331,-0.2404,-0.24,-0.2408,-0.2292,-0.2291,-0.2289,-0.2288,0,0,-0.1769,-0.1796,-0.1801,-0.1839,-0.1874,-0.1893,-0.1941,-0.198,-0.2038,-0.2066,-0.2068,-0.216,-0.2182,-0.2249,-0.2282,-0.2288,-0.2285,-0.2283,-0.2368,-0.2377,-0.2385,-0.2386,-0.2395,-0.2285,-0.2285,-0.2284,-0.2284,0,-0.1735,-0.1751,-0.1778,-0.1807,-0.185,-0.1865,-0.1887,-0.1925,-0.1957,-0.2026,-0.2025,-0.2074,-0.2135,-0.2155,-0.2172,-0.2261,-0.2238,-0.2279,-0.2334,-0.2355,-0.2366,-0.2375,-0.2379,-0.2388,-0.2281,-0.2281,-0.2281,0,-0.1686,-0.1694,-0.1708,-0.1741,-0.1766,-0.1807,-0.1791,-0.1847,-0.1892,-0.1873,-0.1954,-0.1973,-0.1991,-0.2059,-0.2092,-0.2066,-0.218,-0.2153,-0.216,-0.2162,-0.2181,-0.2194,-0.2206,-0.2054,-0.2053,-0.2053,0,0,-0.1661,-0.168,-0.1694,-0.1732,-0.1747,-0.1773,-0.1802,-0.1819,-0.1849,-0.1871,-0.1897,-0.1927,-0.1966,-0.1991,-0.2023,-0.2083,-0.207,-0.2127,-0.2137,-0.2146,-0.2153,-0.2175,-0.2187,-0.2051,-0.2051,-0.205,0,0,-0.1649,-0.1655,-0.1657,-0.1694,-0.1725,-0.1746,-0.1789,-0.18,-0.1845,-0.1857,-0.1859,-0.1867,-0.1942,-0.1939,-0.1908,-0.2019,-0.1972,-0.1979,-0.2028,-0.2041,-0.2051,-0.2052,-0.1884,0,0,0,0,0,-0.1616,-0.1648,-0.1649,-0.1657,-0.1699,-0.174,-0.175,-0.1777,-0.1782,-0.1815,-0.1838,-0.1831,-0.1923,-0.1895,-0.1904,-0.1962,-0.2022,-0.2027,-0.2032,-0.2108,-0.2122,-0.2134,0,0,0,0,0,0,-0.1619,-0.1625,-0.1649,-0.1665,-0.1676,-0.1738,-0.1722,-0.173,-0.1779,-0.1783,-0.1826,-0.1831,-0.1829,-0.1891,-0.1899,-0.1955,-0.1881,-0.2024,-0.2028,-0.2032,-0.2113,-0.2125,-0.2134,0,0,0,0,0,-0.1621,-0.1626,-0.1683,-0.1667,-0.1676,-0.1718,-0.1721,-0.1728,-0.1774,-0.1788,-0.1795,-0.1798,-0.1828,-0.1838,-0.1895,-0.1951,-0.1875,-0.1878,-0.2027,-0.203,-0.2033,-0.2119,0,0,0,0,0,0,-0.1623,-0.1636,-0.1686,-0.1691,-0.1663,-0.1717,-0.1723,-0.1727,-0.1777,-0.1785,-0.1756,-0.1757,-0.1828,-0.1835,-0.1842,-0.1951,-0.1871,-0.1874,-0.1876,-0.2029,-0.2032,-0.2034,0,0,0,0,0,0,-0.1633,-0.1639,-0.1688,-0.1682,-0.1687,-0.1716,-0.1722,-0.1754,-0.1777,-0.1742,-0.1745,-0.1756,-0.1819,-0.1834,-0.1839,-0.1889,-0.1867,-0.187,-0.1872,-0.1874,-0.2031,-0.2034,0,0,0,0,0,0,-0.1637,-0.1642,-0.1681,-0.1684,-0.1688,-0.1746,-0.1745,-0.1788,-0.1772,-0.174,-0.1772,-0.1772,-0.1817,-0.1823,-0.1837,-0.1884,-0.1887,-0.1867,-0.1869,-0.1871,-0.1872,0,0,0,0,0,0,0,-0.164,-0.1592,-0.1658,-0.1686,-0.169,-0.1738,-0.1739,-0.174,-0.1772,-0.1772,-0.1772,-0.1772,-0.185,-0.1854,-0.1857,-0.188,0,0,-0.1867,-0.1868,0,0,0,0,0,0,0,0,-0.1592,-0.1592,-0.1658,-0.1659,-0.166,-0.1738,-0.1739,-0.174,-0.1772,-0.1772,-0.1772,-0.1772,-0.1851,-0.1854,-0.1856,0,0,0,0,0,0,0,0,0,0,0,0,0,0,0,-0.1658,-0.1659,0,-0.1738,-0.1739,-0.174,-0.1772,-0.1772,-0.1772,-0.1772,-0.1852,-0.1854,-0.1856,0,0,0,0,0,0,0,0,0,0,0,0,0,0,0,0,0,0,0,0,0,0,0,0,0,0,0,0,0,0,0,0,0,0,0,0,0,0,0,0,0,0,0,0,0,0,0,0,0,0,0,0,0,0,0,0,0,0,0,0,0,0,0,0,0,0,0,0,0]}],[{"header":{"parameterUnit":"kt","parameterCategory":2,"dx":1,"dy":1,"la1":30.253999710083008,"la2":30.299108505249023,"lo1":-89.0895004272461,"lo2":-89.04439544677734,"nx":28,"ny":28,"refTime":"2022-10-10T21:00:00:Z","depth":"4","parameterNumber":3,"parameterNumberName":"V-component_of_CURRENTS"},"data":[-0.0514,-0.0612,-0.066,-0.0837,-0.0929,-0.1063,-0.1113,-0.1123,-0.1116,-0.11,-0.0949,-0.0871,-0.058,-0.0762,-0.0295,-0.0228,-0.0167,0.0199,0.0204,0.027,0.0263,0.0256,0.0266,0,0,0,0,0,-0.0471,-0.0541,-0.065,-0.0774,-0.089,-0.0949,-0.104,-0.105,-0.1062,-0.109,-0.105,-0.0922,-0.0632,-0.0529,-0.0293,-0.0226,0.0045,0.0057,0.0108,0.0265,0.0257,0.0269,0,0,0,0,0,0,-0.0421,-0.048,-0.0558,-0.0663,-0.0781,-0.0891,-0.092,-0.0978,-0.1014,-0.1016,-0.1037,-0.0881,-0.0798,-0.0489,-0.029,-0.0065,-0.0013,0.0035,0.004,0.0035,0.0012,-0.0005,-0.0025,0,0,0,0,0,-0.037,-0.0395,-0.0452,-0.0573,-0.0656,-0.0756,-0.083,-0.0873,-0.0892,-0.0896,-0.0921,-0.0791,-0.067,-0.0456,-0.0217,-0.0031,0.0096,0.0167,0.0164,0.019,0.0195,0.0216,0.0213,0.0226,0.0225,0.0225,0.0224,0,-0.0315,-0.0343,-0.0428,-0.0488,-0.0513,-0.0583,-0.0648,-0.0656,-0.0707,-0.0747,-0.0797,-0.072,-0.0656,-0.0435,-0.0237,0.003,0.0086,0.0145,0.0172,0.0182,0.0206,0.0204,0.0203,0.0218,0.0218,0.0219,0.0219,0,-0.0291,-0.03,-0.0364,-0.0408,-0.0433,-0.0482,-0.0548,-0.0599,-0.0585,-0.0657,-0.0658,-0.0616,-0.0515,-0.0349,-0.0216,-0.0096,0.0036,0.0102,0.0018,0.0041,0.019,0.0191,0.0207,0.0209,0.0211,0.0213,0.0215,0,-0.0253,-0.0289,-0.0319,-0.034,-0.0413,-0.04,-0.0464,-0.046,-0.0476,-0.0531,-0.0445,-0.048,-0.0343,-0.028,-0.0153,-0.0019,-0.0063,0.01,0.0126,0.0058,0.006,0.0082,0.0087,0.0038,0.0038,0.0038,0.0038,0,-0.0211,-0.0256,-0.0294,-0.0302,-0.0329,-0.0347,-0.0354,-0.0351,-0.0375,-0.0357,-0.0382,-0.0323,-0.0316,-0.0227,-0.0102,-0.0092,-0.0031,-0.0008,0.0115,0.012,0.0083,0.0088,0.0038,0.0038,0.0038,0.0038,0.0038,0,-0.017,-0.0192,-0.0244,-0.0269,-0.0276,-0.0299,-0.0306,-0.0315,-0.0302,-0.0286,-0.0259,-0.0217,-0.0188,-0.0124,-0.0057,-0.006,0.0006,0.0049,0.0051,0.0131,0.0178,0.0121,0.0094,0.0095,0.0095,0.0095,0.0095,0,-0.011,-0.0161,-0.0147,-0.0194,-0.0212,-0.0173,-0.0191,-0.018,-0.0156,-0.0167,-0.0108,-0.0106,-0.0031,-0.0024,-0.0002,0.0044,0.0059,0.0061,0.0115,0.0116,0.0159,0.0148,0.008,0.0099,0.0098,0.0098,0.0098,0,-0.0056,-0.0063,-0.0065,-0.0076,-0.0059,-0.0073,-0.0078,-0.0072,-0.0085,-0.0052,-0.0072,-0.0023,0.0009,0.0026,0.0068,0.0076,0.0068,0.0114,0.0116,0.0102,0.0079,0.0145,0.0149,0.0084,0.0083,0.0083,0.01,0,-0.0015,-0.0012,-0.0026,-0.0016,-0.002,-0.0031,-0.0004,-0.0001,0.0028,0.0042,0.0052,0.009,0.0106,0.0123,0.0152,0.0142,0.0162,0.0182,0.0183,0.0167,0.0181,0.0179,0.022,0.0221,0.0222,0.0223,0,0,0.0051,0.005,0.0093,0.0072,0.0071,0.012,0.0094,0.0105,0.0117,0.0121,0.0145,0.0171,0.0191,0.0188,0.0196,0.021,0.022,0.0192,0.0186,0.0181,0.0178,0.0189,0.0186,0.0225,0.0225,0.0226,0.0226,0,0.0073,0.0115,0.0105,0.0109,0.0122,0.0139,0.0137,0.0151,0.0164,0.0156,0.0195,0.0209,0.0211,0.0228,0.0237,0.0222,0.0233,0.0236,0.019,0.0194,0.0188,0.0184,0.0193,0.019,0.0228,0.0228,0.0228,0,0.0124,0.0148,0.0158,0.0179,0.0188,0.0175,0.0215,0.0208,0.02,0.0237,0.0222,0.0248,0.0273,0.0265,0.0263,0.0268,0.0244,0.0253,0.0249,0.0237,0.0242,0.0236,0.0231,0.0293,0.0293,0.0293,0,0,0.0143,0.0159,0.0188,0.0187,0.0191,0.0213,0.0211,0.0227,0.0237,0.0241,0.0248,0.0265,0.0276,0.0272,0.0281,0.026,0.0271,0.0257,0.0254,0.0251,0.0237,0.0241,0.0236,0.0292,0.0292,0.0292,0,0,0.0147,0.0193,0.0219,0.0221,0.0229,0.0243,0.023,0.0249,0.0254,0.0261,0.0278,0.028,0.0276,0.0286,0.0277,0.0276,0.0296,0.0297,0.0247,0.0244,0.0241,0.0221,0.0288,0,0,0,0,0,0.02,0.0189,0.0213,0.0218,0.0243,0.0236,0.0236,0.0255,0.0275,0.0265,0.0284,0.0287,0.0297,0.0288,0.0285,0.0266,0.0283,0.0285,0.0286,0.022,0.0216,0.0213,0,0,0,0,0,0,0.0202,0.0209,0.0213,0.023,0.0235,0.0237,0.027,0.0274,0.0276,0.0281,0.0285,0.0286,0.0295,0.029,0.0287,0.0269,0.0289,0.0284,0.0285,0.0286,0.0218,0.0215,0.0213,0,0,0,0,0,0.0204,0.0209,0.0251,0.0229,0.0233,0.0254,0.0271,0.0275,0.0277,0.0285,0.0288,0.0292,0.0294,0.0293,0.0288,0.0271,0.0292,0.029,0.0285,0.0286,0.0287,0.0217,0,0,0,0,0,0,0.0205,0.0206,0.0252,0.0253,0.0241,0.0254,0.026,0.0275,0.0282,0.0285,0.0293,0.0296,0.0293,0.0292,0.0291,0.0271,0.0293,0.0292,0.0291,0.0286,0.0286,0.0287,0,0,0,0,0,0,0.0203,0.0207,0.0252,0.0266,0.0269,0.0254,0.0259,0.0242,0.0282,0.029,0.0293,0.0294,0.0293,0.0292,0.0291,0.0263,0.0295,0.0294,0.0293,0.0292,0.0286,0.0287,0,0,0,0,0,0,0.0204,0.0208,0.0266,0.0268,0.027,0.0281,0.0238,0.0261,0.03,0.0289,0.0303,0.0305,0.0292,0.0292,0.0291,0.0263,0.0263,0.0295,0.0294,0.0293,0.0293,0,0,0,0,0,0,0,0.0205,0.0186,0.0247,0.0269,0.0272,0.026,0.0261,0.0261,0.03,0.0301,0.0303,0.0304,0.0302,0.03,0.0299,0.0263,0,0,0.0295,0.0294,0,0,0,0,0,0,0,0,0.0184,0.0185,0.0247,0.0248,0.0248,0.026,0.0261,0.0261,0.03,0.0301,0.0302,0.0303,0.0301,0.03,0.0299,0,0,0,0,0,0,0,0,0,0,0,0,0,0,0,0.0247,0.0248,0,0.026,0.0261,0.0261,0.03,0.0301,0.0302,0.0303,0.0301,0.03,0.0299,0,0,0,0,0,0,0,0,0,0,0,0,0,0,0,0,0,0,0,0,0,0,0,0,0,0,0,0,0,0,0,0,0,0,0,0,0,0,0,0,0,0,0,0,0,0,0,0,0,0,0,0,0,0,0,0,0,0,0,0,0,0,0,0,0,0,0,0,0]}]]]